Regional Weather Roundup
Issued by NWS Midland/Odessa, TX

Skip options and go directly to product.
Home | Oldest Version | Previous Version | Current Version | All | Graphics & Text | Save Text | Print | Product List | Glossary On

Skip product version selection by date and time.   
883
ASUS44 KMAF 291610
RWRMAF
MIDLAND AREA WEATHER ROUNDUP
NATIONAL WEATHER SERVICE MIDLAND TX
1100 AM CDT SUN MAR 29 2015

...IN SOUTHWEST TEXAS AND SOUTHEAST NEW MEXICO...

CITY           SKY/WX    TMP DP  RH WIND       PRES   REMARKS
ALPINE         SUNNY     81  15   8 W16G22    30.24S
ANDREWS        FAIR      77  32  19 NW13      30.08R
ARTESIA        SUNNY     68  32  26 E5        30.14R
BIG SPRING     SUNNY     74  43  32 SW10      30.08R
CARLSBAD       SUNNY     72  26  18 NE5       30.12R
DRYDEN           N/A     68  46  45 CALM      30.09R
FORT STOCKTON  SUNNY     76  25  15 W10       30.13R
GUAD PASS      SUNNY     66  16  14 SW8       30.27R
HOBBS          SUNNY     77  25  14 NW16G22   30.12R
MARFA          SUNNY     75  19  12 W10       30.26R
MIDLAND AIRPK  SUNNY     73  38  28 W5        30.07S
MIDLAND INTL   SUNNY     74  41  30 W5        30.06S
ODESSA         SUNNY     75  38  26 W6        30.08R
PECOS          SUNNY     70  38  30 NW3       30.10S
PRESIDIO       FAIR      69  32  25 E3        30.16F
SEMINOLE       SUNNY     79  30  16 NW16      30.09R
SNYDER         SUNNY     69  43  38 SW14      30.04R
WINK           SUNNY     73  36  25 NW8       30.08R
$$
...OTHER STATIONS IN TEXAS...

CITY           SKY/WX    TMP DP  RH WIND       PRES   REMARKS
ABILENE        SUNNY     74  47  38 SW16      30.01R
AMARILLO       SUNNY     67  33  28 N28G37    30.13R
AUSTIN         MOSUNNY   70  60  70 S17G26    30.12S
BROWNSVILLE    MOSUNNY   78  63  59 S26G33    30.17R
CORPUS CHRISTI MOSUNNY   73  63  70 S23       30.14R
DALLAS FTW     SUNNY     69  51  52 S16       30.04R
DEL RIO        SUNNY     67  53  61 E8        30.09R
EL PASO        MOSUNNY   68  14  12 S6        30.20R
HOUSTON INT    PTSUNNY   71  62  73 S17G25    30.19R
LUBBOCK        SUNNY     75  30  19 N25G31    30.06R
SAN ANGELO     SUNNY     74  50  42 SW17      30.04R
SAN ANTONIO    MOSUNNY   68  58  70 S14       30.14R
WACO           SUNNY     68  58  70 S18       30.08S
WICHITA FALLS  NOT AVBL
$$
...OTHER LOCATIONS IN NEW MEXICO...

CITY           SKY/WX    TMP DP  RH WIND       PRES   REMARKS
ALAMAGORDO     MOSUNNY   72  14  11 NW6       30.20S
ALBUQUERQUE    MOSUNNY   61  20  20 SW7       30.27R
CANNON AFB     NOT AVBL
CLOVIS         SUNNY     72  28  20 N25G35    30.18R
HOLLOMAN AFB   MOSUNNY   73  18  12 SW8       30.19R
ROSWELL        SUNNY     80  25  13 N13       30.13R
RUIDOSO        SUNNY     64  16  15 NW12G18   30.34R
SANTA FE       SUNNY     59  21  23 N15       30.29R
TRUTH OR CONSE SUNNY     69  16  13 VRB3      30.24S
TUCUMCARI      SUNNY     72  24  16 NE25G35   30.18R
$$

USA.gov is the U.S. government's official web portal to all federal, state and local government web resources and services.